Estación de Remehue INIA
Ultimos registro cada 15 minutos 31
| N° | Estación | Fecha / Hora | Temperatura | Humedad | Lluvia | Velocidad | Dirección | Radiación | Presion |
| 31 | Remehue INIA | 06-05-2026 07:30 | 8,3 | 98,8 | 0,1 | 1,6 | 141 | 0 | 999 |
| 30 | Remehue INIA | 06-05-2026 07:15 | 8,4 | 98,9 | 0 | 1,5 | 161 | 0 | 999 |
| 29 | Remehue INIA | 06-05-2026 07:00 | 8,5 | 99 | 0,1 | 1,7 | 154 | 0 | 999 |
| 28 | Remehue INIA | 06-05-2026 06:45 | 8,6 | 99,3 | 0 | 1,4 | 153 | 0 | 999 |
| 27 | Remehue INIA | 06-05-2026 06:30 | 8,6 | 99,3 | 0 | 1,3 | 158 | 0 | 999 |
| 26 | Remehue INIA | 06-05-2026 06:15 | 8,7 | 99,4 | 0,2 | 1,6 | 145 | 0 | 999 |
| 25 | Remehue INIA | 06-05-2026 06:00 | 8,8 | 99,4 | 0,1 | 1,4 | 150 | 0 | 999 |
| 24 | Remehue INIA | 06-05-2026 05:45 | 8,9 | 99,5 | 0,1 | 1 | 152 | 0 | 999 |
| 23 | Remehue INIA | 06-05-2026 05:30 | 8,9 | 99,5 | 0,1 | 1,8 | 156 | 0 | 999 |
| 22 | Remehue INIA | 06-05-2026 05:15 | 8,9 | 99,5 | 1 | 1,3 | 163 | 0 | 998 |
| 21 | Remehue INIA | 06-05-2026 05:00 | 8,9 | 99,6 | 1,5 | 1 | 156 | 0 | 999 |
| 20 | Remehue INIA | 06-05-2026 04:45 | 8,9 | 99,6 | 0,9 | 1 | 162 | 0 | 999 |
| 19 | Remehue INIA | 06-05-2026 04:30 | 8,8 | 99,6 | 0,7 | 0,6 | 113 | 0 | 998 |
| 18 | Remehue INIA | 06-05-2026 04:15 | 8,8 | 99,7 | 1,5 | 0,6 | 139 | 0 | 998 |
| 17 | Remehue INIA | 06-05-2026 04:00 | 8,8 | 99,6 | 1 | 0,7 | 120 | 0 | 998 |
| 16 | Remehue INIA | 06-05-2026 03:45 | 8,8 | 99,6 | 0,8 | 0,7 | 102 | 0 | 999 |
| 15 | Remehue INIA | 06-05-2026 03:30 | 9 | 99,6 | 1 | 0,6 | 96 | 0 | 999 |
| 14 | Remehue INIA | 06-05-2026 03:15 | 9 | 99,6 | 0,8 | 0,5 | 94 | 0 | 999 |
| 13 | Remehue INIA | 06-05-2026 03:00 | 9 | 99,5 | 1,1 | 0,4 | 107 | 0 | 999 |
| 12 | Remehue INIA | 06-05-2026 02:45 | 9,1 | 99,6 | 1,6 | 0,8 | 108 | 0 | 999 |
| 11 | Remehue INIA | 06-05-2026 02:30 | 9,3 | 99,6 | 1,4 | 0,8 | 107 | 0 | 999 |
| 10 | Remehue INIA | 06-05-2026 02:15 | 9,3 | 99,6 | 0,4 | 0,8 | 108 | 0 | 999 |
| 9 | Remehue INIA | 06-05-2026 02:00 | 9,3 | 99,6 | 0,5 | 0,7 | 106 | 0 | 999 |
| 8 | Remehue INIA | 06-05-2026 01:45 | 9,4 | 99,6 | 1,7 | 0,9 | 140 | 0 | 999 |
| 7 | Remehue INIA | 06-05-2026 01:30 | 9,5 | 99,6 | 1,4 | 0,9 | 155 | 0 | 999 |
| 6 | Remehue INIA | 06-05-2026 01:15 | 9,7 | 99,6 | 3,1 | 1,7 | 164 | 0 | 999 |
| 5 | Remehue INIA | 06-05-2026 01:00 | 10 | 99,6 | 2,3 | 1,4 | 158 | 0 | 999 |
| 4 | Remehue INIA | 06-05-2026 00:45 | 10,2 | 99,7 | 1,6 | 0,8 | 163 | 0 | 999 |
| 3 | Remehue INIA | 06-05-2026 00:30 | 10,3 | 99,6 | 1 | 0,4 | 158 | 0 | 998 |
| 2 | Remehue INIA | 06-05-2026 00:15 | 10,5 | 99,7 | 0,7 | 0,8 | 87 | 0 | 999 |
| 1 | Remehue INIA | 06-05-2026 00:00 | 10,7 | 99,7 | 1 | 0,4 | 101 | 0 | 999 |